Regional Weather Roundup
Issued by NWS State College, PA

Current Version | Previous Version | Text Only | Print | Product List | Glossary On
Versions: 1 2 3 4 5 6 7 8 9 10 11 12 13 14 15 16 17 18 19 20 21 22 23 24 25 26 27 28 29 30 31 32 33 34 35 36 37 38 39 40 41 42 43 44 45 46 47 48 49 50
000
ASUS41 KCTP 211310
RWRCTP

REGIONAL WEATHER ROUNDUP
NATIONAL WEATHER SERVICE STATE COLLEGE PA
800 AM EST TUE FEB 21 2017

Note: "fair" indicates few or no clouds below 12,000 feet with no
significant weather and/or obstructions to visibility.

* = STATION THAT DOES NOT REPORT PRECIPITATION /E.G. RAIN...SNOW...ETC/
    THUNDER OR FOG.

PAZ002>004-007>009-013>016-020>023-029>032-211400-
WESTERN PENNSYLVANIA

CITY           SKY/WX    TMP DP  RH WIND       PRES   REMARKS
ERIE           CLOUDY    48  28  46 S20       30.02S
MEADVILLE      CLOUDY    43  27  53 VRB3      30.06S
FRANKLIN*      CLOUDY    41  27  56 SE12      30.10S
NEW CASTLE     FAIR      44  31  60 CALM      30.09R
BEAVER COUNTY  CLEAR     46  32  57 SE8       30.08
BUTLER*        PTCLDY    46  30  53 SE9       30.11S
PITTSBURGH INT CLOUDY    48  32  53 SE6       30.08S
PITTSBURGH     PTCLDY    48  29  47 SE9       30.09R
INDIANA*       CLEAR     45  27  49 S9        30.16S
LATROBE        CLEAR     46  28  49 VRB3      30.14
WASHINGTON CO* CLOUDY    45  32  61 S3        30.11R
$$

PAZ004>006-010>012-017>019-024>028-033>037-041-042-045-046-049>053-211400-
CENTRAL PENNSYLVANIA

CITY           SKY/WX    TMP DP  RH WIND       PRES   REMARKS
BRADFORD       PTCLDY    36  18  48 SE13      30.13S
DUBOIS         CLOUDY    39  19  44 SE13      30.13R
CLEARFIELD       N/A    N/A N/A N/A MISG      30.20F
JOHNSTOWN      CLOUDY    37  24  59 S8        30.16R
ALTOONA        CLOUDY    39  20  46 S6        30.23S
STATE COLLEGE  SUNNY     36  16  44 CALM      30.24F
WILLIAMSPORT   CLOUDY    34  19  54 VRB3      30.31S
SELINSGROVE    CLOUDY    30  25  81 MISG      30.33S
FT INDIANTOWN  PTSUNNY   31  18  58 NE3       30.36R
CAPITAL CITY   CLOUDY    37  18  46 E6        30.35S
HARRISBURG     PTSUNNY   37  18  46 E5        30.35S
YORK           CLOUDY    31  25  78 CALM      30.34S
$$

PAZ038>040-043-044-047-048-054-055-060>062-067>071-211400-
EASTERN PENNSYLVANIA

CITY           SKY/WX    TMP DP  RH WIND       PRES   REMARKS
SCRANTON       CLOUDY    35  12  38 VRB3      30.30S
MOUNT POCONO   CLOUDY    28  11  48 SE7       30.27S
ALLENTOWN      MOSUNNY   32  18  56 CALM      30.38R
QUAKERTOWN*    MOSUNNY   28  23  80 CALM      30.38R
READING        PTSUNNY   32  21  64 CALM      30.36S
LANCASTER      PTSUNNY   32  22  66 CALM      30.37R
COATESVILLE    CLOUDY    34  16  47 E10       30.35F
POTTSTOWN      CLOUDY    30  19  63 CALM      30.39R
BLUE BELL      CLOUDY    32  23  69 CALM      30.38R
DOYLESTOWN     MOSUNNY   33  16  49 N3        30.36S
WILLOW GROVE   NOT AVBL
NORTH PHILA    CLOUDY    35  21  56 NE5       30.40R
PHILADELPHIA   PTSUNNY   38  21  50 E7        30.39R
$$




USA.gov is the U.S. government's official web portal to all federal, state and local government web resources and services.